Simultaneous Nadir Overpasses (SNOs) Predictions

Prediction of SNOs between GOES-15 and TERRA Satellite Orbit:

Table of predicted SNOs for the next 14.0 days since TLE Epoch: 2/17/2024
Index Date Time (GOES-15) GOES-15 Lat,Lon TERRA Lat,Lon Distance(km) Time Diff (sec)
1 02/18/2024 17:34:09 -0.01, 61.39 0.66, 64.52 355.47 80
2 02/19/2024 05:54:10 0.01, 61.42 0.36, 59.65 200.27 80
3 02/21/2024 05:39:50 0.01, 61.40 -0.51, 63.75 267.78 80
4 02/21/2024 18:00:00 -0.01, 61.36 -0.51, 58.85 285.18 80
5 02/23/2024 17:40:19 -0.02, 61.35 0.34, 62.96 182.77 80
6 02/24/2024 06:00:19 0.02, 61.39 0.74, 58.10 374.13 80
7 02/26/2024 05:45:58 0.02, 61.37 -0.14, 62.21 94.30 80
8 02/26/2024 18:06:07 -0.02, 61.32 -0.85, 57.30 457.38 80
9 02/28/2024 17:46:26 -0.02, 61.32 0.00, 61.41 10.44 80
10 03/01/2024 17:29:24 -0.02, 61.32 0.88, 65.51 477.67 80
